When you browse on this site, cookies collect data to enhance your experience and personalize the content and advertising you see.
Visit our Privacy Policy to learn more. By continuing to use the site, you agree to this use of cookies and data.
  • En España
  • Lista de países
  • Para 7 días
  • Temperatura del agua
  • El tiempo en el mapa
  • Informadores
  • user-avatar
    Iniciar sesión

    Tiempo cada hora Florence

    Hoy, 20 Septiembre, Viernes

    Tiempo Temperatura Precipitaciones Viento Presión Humedad
    00:00 +17°C° 0 mm 4 mps 761 mmHg 65%
    01:00 +17°C° 0 mm 4 mps 761 mmHg 67%
    02:00 +15°C° 0 mm 4 mps 761 mmHg 68%
    03:00 +15°C° 0 mm 4 mps 761 mmHg 70%
    04:00 +15°C° 0 mm 4 mps 761 mmHg 71%
    05:00 +16°C° 0 mm 3 mps 761 mmHg 70%
    06:00 +16°C° 0 mm 3 mps 761 mmHg 69%
    07:00 +16°C° 0 mm 3 mps 762 mmHg 68%
    08:00 +18°C° 0 mm 4 mps 762 mmHg 61%
    09:00 +19°C° 0 mm 4 mps 762 mmHg 54%
    10:00 +21°C° 0 mm 4 mps 763 mmHg 46%
    11:00 +22°C° 0 mm 4 mps 763 mmHg 44%
    12:00 +23°C° 0 mm 4 mps 762 mmHg 41%
    13:00 +25°C° 0 mm 4 mps 762 mmHg 38%
    14:00 +25°C° 0 mm 3 mps 762 mmHg 39%
    15:00 +25°C° 0 mm 3 mps 762 mmHg 39%
    16:00 +25°C° 0 mm 3 mps 761 mmHg 40%
    17:00 +22°C° 0 mm 3 mps 761 mmHg 47%
    18:00 +20°C° 0 mm 3 mps 761 mmHg 54%
    19:00 +18°C° 0 mm 2 mps 761 mmHg 60%
    20:00 +17°C° 0 mm 2 mps 762 mmHg 62%
    21:00 +16°C° 0 mm 2 mps 762 mmHg 63%
    22:00 +15°C° 0 mm 2 mps 762 mmHg 65%
    23:00 +15°C° 0 mm 2 mps 762 mmHg 63%

    Mañana, 21 Septiembre, Sábado

    Tiempo Temperatura Precipitaciones Viento Presión Humedad
    00:00 +15°C° 0 mm 2 mps 762 mmHg 61%
    01:00 +15°C° 0 mm 2 mps 762 mmHg 60%
    02:00 +14°C° 0 mm 2 mps 762 mmHg 60%
    03:00 +14°C° 0 mm 2 mps 762 mmHg 60%
    04:00 +14°C° 0 mm 1 mps 762 mmHg 60%
    05:00 +14°C° 0 mm 1 mps 762 mmHg 60%
    06:00 +15°C° 0 mm 1 mps 761 mmHg 60%
    07:00 +15°C° 0 mm 1 mps 761 mmHg 60%
    08:00 +19°C° 0 mm 1 mps 762 mmHg 52%
    09:00 +21°C° 0 mm 1 mps 762 mmHg 45%
    10:00 +24°C° 0 mm 1 mps 762 mmHg 37%
    11:00 +25°C° 0 mm 1 mps 762 mmHg 37%
    12:00 +26°C° 0 mm 1 mps 762 mmHg 37%
    13:00 +27°C° 0 mm 1 mps 762 mmHg 37%
    14:00 +27°C° 0 mm 1 mps 761 mmHg 41%
    15:00 +27°C° 0 mm 1 mps 761 mmHg 45%
    16:00 +27°C° 0 mm 1 mps 760 mmHg 48%
    17:00 +25°C° 0 mm 1 mps 760 mmHg 55%
    18:00 +23°C° 0 mm 1 mps 761 mmHg 61%
    19:00 +22°C° 0 mm 1 mps 761 mmHg 67%
    20:00 +21°C° 0 mm 1 mps 761 mmHg 69%
    21:00 +21°C° 0 mm 1 mps 761 mmHg 70%
    22:00 +21°C° 0 mm 1 mps 760 mmHg 72%
    23:00 +20°C° 1.3 mm 1 mps 760 mmHg 77%

    Pasado mañana, 22 Septiembre, Domingo

    Tiempo Temperatura Precipitaciones Viento Presión Humedad
    00:00 +20°C° 1.3 mm 1 mps 760 mmHg 82%
    01:00 +20°C° 1.3 mm 1 mps 760 mmHg 87%
    02:00 +20°C° 1.3 mm 1 mps 759 mmHg 89%
    03:00 +20°C° 1.3 mm 1 mps 759 mmHg 90%
    04:00 +19°C° 1.3 mm 1 mps 759 mmHg 92%
    05:00 +20°C° 0.9 mm 1 mps 759 mmHg 91%
    06:00 +20°C° 0.9 mm 1 mps 758 mmHg 90%
    07:00 +20°C° 0.9 mm 1 mps 758 mmHg 90%
    08:00 +20°C° 3.2 mm 1 mps 758 mmHg 90%
    09:00 +21°C° 3.2 mm 1 mps 758 mmHg 91%
    10:00 +21°C° 3.2 mm 1 mps 758 mmHg 92%
    11:00 +21°C° 0.3 mm 2 mps 758 mmHg 88%
    12:00 +23°C° 0.3 mm 2 mps 758 mmHg 83%
    13:00 +25°C° 0.3 mm 2 mps 758 mmHg 79%
    14:00 +24°C° 1.1 mm 2 mps 757 mmHg 82%
    15:00 +24°C° 1.1 mm 2 mps 757 mmHg 84%
    16:00 +24°C° 1.1 mm 1 mps 756 mmHg 87%
    17:00 +23°C° 2.5 mm 1 mps 756 mmHg 89%
    18:00 +23°C° 2.5 mm 2 mps 756 mmHg 91%
    19:00 +21°C° 2.5 mm 2 mps 756 mmHg 92%
    20:00 +21°C° 1.8 mm 2 mps 756 mmHg 93%
    21:00 +21°C° 1.8 mm 2 mps 756 mmHg 93%
    22:00 +22°C° 1.8 mm 1 mps 755 mmHg 94%
    23:00 +22°C° 0.4 mm 1 mps 755 mmHg 94%

    23 Septiembre, Lunes

    Tiempo Temperatura Precipitaciones Viento Presión Humedad
    00:00 +21°C° 0.4 mm 1 mps 755 mmHg 94%
    01:00 +21°C° 0.4 mm 1 mps 754 mmHg 94%
    02:00 +21°C° 0.1 mm 1 mps 754 mmHg 94%
    03:00 +20°C° 0.1 mm 2 mps 754 mmHg 95%
    04:00 +20°C° 0.1 mm 2 mps 754 mmHg 95%
    05:00 +20°C° 0.2 mm 2 mps 753 mmHg 95%
    06:00 +21°C° 0.2 mm 2 mps 753 mmHg 95%
    07:00 +21°C° 0.2 mm 2 mps 753 mmHg 95%
    08:00 +23°C° 0.6 mm 2 mps 753 mmHg 90%
    09:00 +24°C° 0.6 mm 3 mps 753 mmHg 85%
    10:00 +25°C° 0.6 mm 3 mps 753 mmHg 80%
    11:00 +25°C° 0.3 mm 4 mps 753 mmHg 73%
    12:00 +25°C° 0.3 mm 5 mps 752 mmHg 66%
    13:00 +26°C° 0.3 mm 6 mps 752 mmHg 59%
    14:00 +24°C° 0 mm 6 mps 752 mmHg 57%
    15:00 +25°C° 0 mm 5 mps 751 mmHg 56%
    16:00 +25°C° 0 mm 5 mps 751 mmHg 55%
    17:00 +22°C° 0 mm 4 mps 751 mmHg 62%
    18:00 +21°C° 0 mm 3 mps 751 mmHg 70%
    19:00 +19°C° 0 mm 2 mps 751 mmHg 77%
    20:00 +19°C° 0 mm 2 mps 752 mmHg 79%
    21:00 +19°C° 0 mm 2 mps 752 mmHg 80%
    22:00 +20°C° 0 mm 1 mps 752 mmHg 82%
    23:00 +19°C° 0.1 mm 1 mps 753 mmHg 83%

    24 Septiembre, Martes

    Tiempo Temperatura Precipitaciones Viento Presión Humedad
    00:00 +19°C° 0.1 mm 1 mps 753 mmHg 85%
    01:00 +16°C° 0.1 mm 0 mps 753 mmHg 86%
    02:00 +16°C° 0 mm 0 mps 753 mmHg 85%
    03:00 +18°C° 0 mm 1 mps 753 mmHg 84%
    04:00 +16°C° 0 mm 1 mps 753 mmHg 83%
    05:00 +18°C° 0 mm 1 mps 754 mmHg 82%
    06:00 +18°C° 0 mm 1 mps 754 mmHg 80%
    07:00 +18°C° 0 mm 1 mps 754 mmHg 78%
    08:00 +20°C° 0 mm 1 mps 755 mmHg 69%
    09:00 +22°C° 0 mm 1 mps 755 mmHg 61%
    10:00 +24°C° 0 mm 1 mps 756 mmHg 52%
    11:00 +25°C° 0 mm 1 mps 756 mmHg 48%
    12:00 +27°C° 0 mm 1 mps 756 mmHg 45%
    13:00 +28°C° 0 mm 1 mps 756 mmHg 42%
    14:00 +28°C° 0 mm 1 mps 756 mmHg 43%
    15:00 +27°C° 0 mm 1 mps 755 mmHg 43%
    16:00 +27°C° 0 mm 1 mps 755 mmHg 44%
    17:00 +25°C° 0 mm 1 mps 755 mmHg 53%
    18:00 +23°C° 0 mm 1 mps 755 mmHg 61%
    19:00 +21°C° 0 mm 1 mps 755 mmHg 69%
    20:00 +21°C° 0 mm 1 mps 755 mmHg 71%
    21:00 +20°C° 0 mm 1 mps 755 mmHg 73%
    22:00 +17°C° 0 mm 0 mps 755 mmHg 75%
    23:00 +17°C° 0 mm 0 mps 755 mmHg 76%

    25 Septiembre, Miércoles

    Tiempo Temperatura Precipitaciones Viento Presión Humedad
    00:00 +17°C° 0 mm 0 mps 755 mmHg 77%
    01:00 +17°C° 0 mm 0 mps 755 mmHg 78%
    02:00 +16°C° 0 mm 0 mps 755 mmHg 80%
    03:00 +16°C° 0 mm 0 mps 755 mmHg 81%
    04:00 +16°C° 0 mm 0 mps 754 mmHg 83%
    05:00 +16°C° 0 mm 0 mps 754 mmHg 82%
    06:00 +16°C° 0 mm 0 mps 754 mmHg 82%
    07:00 +16°C° 0 mm 0 mps 754 mmHg 81%
    08:00 +20°C° 0 mm 1 mps 754 mmHg 75%
    09:00 +22°C° 0 mm 1 mps 755 mmHg 70%
    10:00 +24°C° 0 mm 2 mps 755 mmHg 64%
    11:00 +24°C° 0 mm 2 mps 755 mmHg 63%
    12:00 +25°C° 0 mm 2 mps 754 mmHg 63%
    13:00 +25°C° 0 mm 3 mps 754 mmHg 62%
    14:00 +24°C° 0.1 mm 2 mps 754 mmHg 67%
    15:00 +24°C° 0.1 mm 2 mps 753 mmHg 71%
    16:00 +23°C° 0.1 mm 2 mps 753 mmHg 76%
    17:00 +23°C° 0.2 mm 1 mps 753 mmHg 78%
    18:00 +22°C° 0.2 mm 1 mps 753 mmHg 81%
    19:00 +21°C° 0.2 mm 1 mps 754 mmHg 84%
    20:00 +21°C° 0 mm 1 mps 754 mmHg 83%
    21:00 +21°C° 0 mm 1 mps 754 mmHg 82%
    22:00 +21°C° 0 mm 1 mps 754 mmHg 81%
    23:00 +21°C° 0 mm 1 mps 754 mmHg 81%
    Mostrar más